timestamp,wind_dir_avg,wind_spd_avg,wind_spd_max_dir,wind_spd_gust,battery_voltage,lat,long
2023-12-27 00:04:00+00:00,279.0,6.75,289.0,8.2,12.09,47.59359,-54.27349
2023-12-27 00:14:00+00:00,285.0,8.53,288.0,10.68,12.09,47.59359,-54.27349
2023-12-27 00:24:00+00:00,288.0,6.21,289.0,7.49,12.09,47.59359,-54.27349
2023-12-27 00:34:00+00:00,299.0,6.44,301.0,8.27,12.09,47.59359,-54.27349
2023-12-27 00:44:00+00:00,295.0,6.13,289.0,7.55,12.09,47.59359,-54.27349
2023-12-27 00:54:00+00:00,302.0,7.17,300.0,8.89,12.09,47.59359,-54.27349
2023-12-27 01:04:00+00:00,289.0,6.35,290.0,7.73,12.09,47.59359,-54.27349
2023-12-27 01:14:00+00:00,281.0,6.23,286.0,7.09,12.09,47.59359,-54.27349
2023-12-27 01:24:00+00:00,277.0,6.65,286.0,7.38,12.09,47.59359,-54.27349
2023-12-27 01:34:00+00:00,277.0,6.23,277.0,8.22,12.09,47.59359,-54.27349
2023-12-27 01:44:00+00:00,274.0,7.09,275.0,7.96,12.09,47.59359,-54.27349
2023-12-27 01:54:00+00:00,269.0,7.05,267.0,7.64,12.09,47.59359,-54.27349
2023-12-27 02:04:00+00:00,271.0,7.02,273.0,8.14,12.09,47.59359,-54.27349
2023-12-27 02:14:00+00:00,278.0,7.7,278.0,10.12,12.09,47.59359,-54.27349
2023-12-27 02:24:00+00:00,279.0,7.01,282.0,8.19,12.09,47.59359,-54.27349
2023-12-27 02:34:00+00:00,274.0,7.38,270.0,8.48,12.09,47.59359,-54.27349
2023-12-27 02:44:00+00:00,279.0,7.35,284.0,9.01,12.09,47.59359,-54.27349
2023-12-27 02:54:00+00:00,276.0,6.89,277.0,9.1,12.09,47.59359,-54.27349
2023-12-27 03:04:00+00:00,276.0,7.29,274.0,9.26,12.09,47.59359,-54.27349
2023-12-27 03:14:00+00:00,274.0,7.29,270.0,9.22,12.09,47.59359,-54.27349
2023-12-27 03:24:00+00:00,284.0,8.44,282.0,10.44,12.09,47.59359,-54.27349
2023-12-27 03:34:00+00:00,287.0,8.47,292.0,9.96,12.09,47.59359,-54.27349
2023-12-27 03:44:00+00:00,284.0,8.35,293.0,10.66,12.09,47.59359,-54.27349
2023-12-27 03:54:00+00:00,284.0,8.54,282.0,10.74,12.09,47.59359,-54.27349
2023-12-27 04:04:00+00:00,292.0,7.5,284.0,10.76,12.09,47.59359,-54.27349
2023-12-27 04:14:00+00:00,289.0,9.16,288.0,10.71,12.09,47.59359,-54.27349
2023-12-27 04:24:00+00:00,291.0,4.7,300.0,5.35,12.09,47.59359,-54.27349
2023-12-27 04:34:00+00:00,294.0,5.43,292.0,6.31,12.09,47.59359,-54.27349
2023-12-27 04:44:00+00:00,302.0,4.5,295.0,5.14,12.09,47.59359,-54.27349
2023-12-27 04:54:00+00:00,300.0,8.5,298.0,11.28,12.09,47.59359,-54.27349
2023-12-27 05:04:00+00:00,299.0,7.65,287.0,10.73,12.09,47.59359,-54.27349
2023-12-27 05:14:00+00:00,298.0,6.95,289.0,10.55,12.01,47.59359,-54.27349
2023-12-27 05:24:00+00:00,292.0,8.61,284.0,10.7,12.01,47.59359,-54.27349
2023-12-27 05:34:00+00:00,299.0,8.42,294.0,10.61,12.01,47.59359,-54.27349
2023-12-27 05:44:00+00:00,298.0,8.17,289.0,10.32,12.01,47.59359,-54.27349
2023-12-27 05:54:00+00:00,307.0,6.65,302.0,9.58,12.01,47.59359,-54.27349
2023-12-27 06:04:00+00:00,304.0,7.66,305.0,9.85,12.01,47.59359,-54.27349
2023-12-27 06:14:00+00:00,318.0,6.23,319.0,7.41,12.01,47.59359,-54.27349
2023-12-27 06:24:00+00:00,309.0,5.46,308.0,6.4,12.01,47.59359,-54.27349
2023-12-27 06:34:00+00:00,298.0,6.14,298.0,7.23,12.01,47.59359,-54.27349
2023-12-27 06:44:00+00:00,313.0,6.32,316.0,7.15,12.01,47.59359,-54.27349
2023-12-27 06:54:00+00:00,310.0,6.21,317.0,7.09,12.01,47.59359,-54.27349
2023-12-27 07:04:00+00:00,313.0,4.56,322.0,6.1,12.01,47.59359,-54.27349
2023-12-27 07:14:00+00:00,312.0,4.52,319.0,5.23,12.01,47.59359,-54.27349
2023-12-27 07:24:00+00:00,300.0,4.56,297.0,5.71,12.01,47.59359,-54.27349
2023-12-27 07:34:00+00:00,304.0,4.88,306.0,5.71,12.01,47.59359,-54.27349
2023-12-27 07:44:00+00:00,303.0,5.66,306.0,7.1,12.01,47.59359,-54.27349
2023-12-27 07:54:00+00:00,312.0,4.66,315.0,5.33,12.01,47.59359,-54.27349
2023-12-27 08:04:00+00:00,297.0,4.96,302.0,6.38,12.01,47.59359,-54.27349
2023-12-27 08:14:00+00:00,298.0,6.02,293.0,7.7,12.01,47.59359,-54.27349
2023-12-27 08:24:00+00:00,332.0,5.8,338.0,7.47,12.01,47.59359,-54.27349
2023-12-27 08:34:00+00:00,314.0,5.11,310.0,6.68,12.01,47.59359,-54.27349
2023-12-27 08:44:00+00:00,321.0,6.67,323.0,8.08,12.01,47.59359,-54.27349
2023-12-27 08:54:00+00:00,317.0,6.36,323.0,7.62,12.01,47.59359,-54.27349
2023-12-27 09:04:00+00:00,324.0,5.99,325.0,7.63,12.01,47.59359,-54.27349
2023-12-27 09:14:00+00:00,320.0,5.64,320.0,6.51,12.01,47.59359,-54.27349
2023-12-27 09:24:00+00:00,318.0,4.69,318.0,5.67,12.01,47.59359,-54.27349
2023-12-27 09:34:00+00:00,318.0,4.86,319.0,5.66,12.01,47.59359,-54.27349
2023-12-27 09:44:00+00:00,289.0,4.45,287.0,4.97,12.01,47.59359,-54.27349
2023-12-27 09:54:00+00:00,317.0,4.35,316.0,5.0,12.01,47.59359,-54.27349
2023-12-27 10:04:00+00:00,298.0,4.09,306.0,5.12,12.01,47.59359,-54.27349
2023-12-27 10:14:00+00:00,314.0,4.53,318.0,5.56,12.01,47.59359,-54.27349
2023-12-27 10:24:00+00:00,316.0,4.13,312.0,4.5,12.01,47.59359,-54.27349
2023-12-27 10:34:00+00:00,317.0,4.18,322.0,5.17,12.01,47.59359,-54.27349
2023-12-27 10:44:00+00:00,298.0,3.59,300.0,4.43,12.01,47.59359,-54.27349
2023-12-27 10:54:00+00:00,298.0,4.12,300.0,4.66,12.01,47.59359,-54.27349
2023-12-27 11:04:00+00:00,292.0,4.41,296.0,5.06,12.01,47.59359,-54.27349
2023-12-27 11:14:00+00:00,283.0,3.99,285.0,4.55,12.01,47.59359,-54.27349
2023-12-27 11:24:00+00:00,286.0,4.55,283.0,5.21,12.01,47.59359,-54.27349
2023-12-27 11:34:00+00:00,281.0,3.53,276.0,3.97,12.01,47.59359,-54.27349
2023-12-27 11:44:00+00:00,261.0,5.12,266.0,5.67,12.01,47.59359,-54.27349
2023-12-27 11:54:00+00:00,266.0,5.84,261.0,6.82,12.01,47.59359,-54.27349
2023-12-27 12:04:00+00:00,295.0,5.21,289.0,7.11,12.01,47.59359,-54.27349
2023-12-27 12:14:00+00:00,300.0,5.4,298.0,6.91,12.09,47.59359,-54.27349
2023-12-27 12:24:00+00:00,296.0,4.98,299.0,5.74,12.09,47.59359,-54.27349
2023-12-27 12:34:00+00:00,291.0,5.24,286.0,6.5,12.09,47.59359,-54.27349
2023-12-27 12:44:00+00:00,296.0,4.23,306.0,5.01,12.09,47.59359,-54.27349
2023-12-27 12:54:00+00:00,289.0,4.37,297.0,5.05,12.09,47.59359,-54.27349
2023-12-27 13:04:00+00:00,299.0,4.19,302.0,4.91,12.09,47.59359,-54.27349
2023-12-27 13:14:00+00:00,293.0,3.95,303.0,4.6,12.41,47.59359,-54.27349
2023-12-27 13:24:00+00:00,302.0,4.55,308.0,5.28,12.41,47.59359,-54.27349
2023-12-27 13:34:00+00:00,293.0,6.91,301.0,8.74,12.41,47.59359,-54.27349
2023-12-27 13:44:00+00:00,316.0,7.02,319.0,8.07,12.41,47.59359,-54.27349
2023-12-27 13:54:00+00:00,301.0,5.4,299.0,6.84,12.41,47.59359,-54.27349
2023-12-27 14:04:00+00:00,311.0,6.09,312.0,6.84,12.41,47.59359,-54.27349
2023-12-27 14:14:00+00:00,297.0,5.21,294.0,5.77,13.29,47.59359,-54.27349
2023-12-27 14:24:00+00:00,299.0,7.78,299.0,8.87,13.29,47.59359,-54.27349
2023-12-27 14:34:00+00:00,303.0,6.0,312.0,7.63,13.29,47.59359,-54.27349
2023-12-27 14:44:00+00:00,291.0,5.17,280.0,5.95,13.29,47.59359,-54.27349
2023-12-27 14:54:00+00:00,294.0,6.0,298.0,7.42,13.29,47.59359,-54.27349
2023-12-27 15:04:00+00:00,308.0,6.28,310.0,7.35,13.29,47.59359,-54.27349
2023-12-27 15:14:00+00:00,293.0,5.1,284.0,6.6,14.0,47.59359,-54.27349
2023-12-27 15:24:00+00:00,297.0,6.86,298.0,8.33,14.0,47.59359,-54.27349
2023-12-27 15:34:00+00:00,285.0,7.26,287.0,10.04,14.0,47.59359,-54.27349
2023-12-27 15:44:00+00:00,302.0,8.18,303.0,10.13,14.0,47.59359,-54.27349
2023-12-27 15:54:00+00:00,290.0,7.69,289.0,9.27,14.0,47.59359,-54.27349
2023-12-27 16:04:00+00:00,302.0,6.97,301.0,8.26,14.0,47.59359,-54.27349
2023-12-27 16:14:00+00:00,297.0,8.36,302.0,9.12,13.92,47.59359,-54.27349
2023-12-27 16:24:00+00:00,296.0,9.87,294.0,11.32,13.92,47.59359,-54.27349
2023-12-27 16:34:00+00:00,304.0,7.4,294.0,8.94,13.92,47.59359,-54.27349
2023-12-27 16:44:00+00:00,296.0,7.38,298.0,8.52,13.92,47.59359,-54.27349
2023-12-27 16:54:00+00:00,306.0,6.09,300.0,8.49,13.92,47.59359,-54.27349
2023-12-27 17:04:00+00:00,285.0,7.38,283.0,8.9,13.92,47.59359,-54.27349
2023-12-27 17:14:00+00:00,304.0,6.71,303.0,8.58,14.4,47.59359,-54.27349
2023-12-27 17:24:00+00:00,309.0,7.32,307.0,8.51,14.4,47.59359,-54.27349
2023-12-27 17:34:00+00:00,313.0,6.38,313.0,7.05,14.4,47.59359,-54.27349
2023-12-27 17:44:00+00:00,283.0,6.35,290.0,8.26,14.4,47.59359,-54.27349
2023-12-27 17:54:00+00:00,274.0,7.29,281.0,9.17,14.4,47.59359,-54.27349
2023-12-27 18:04:00+00:00,277.0,7.34,275.0,8.7,14.4,47.59359,-54.27349
2023-12-27 18:14:00+00:00,284.0,6.07,283.0,7.49,14.4,47.59359,-54.27349
2023-12-27 18:24:00+00:00,292.0,7.64,297.0,9.29,14.4,47.59359,-54.27349
2023-12-27 18:34:00+00:00,278.0,8.94,278.0,10.03,14.4,47.59359,-54.27349
2023-12-27 18:44:00+00:00,283.0,8.12,279.0,9.24,14.4,47.59359,-54.27349
2023-12-27 18:54:00+00:00,287.0,7.47,286.0,8.75,14.4,47.59359,-54.27349
2023-12-27 19:04:00+00:00,286.0,7.53,285.0,9.26,14.4,47.59359,-54.27349
2023-12-27 19:14:00+00:00,274.0,8.67,275.0,10.55,13.21,47.59359,-54.27349
2023-12-27 19:24:00+00:00,273.0,9.63,268.0,10.9,13.21,47.59359,-54.27349
2023-12-27 19:34:00+00:00,267.0,5.79,272.0,6.65,13.21,47.59359,-54.27349
2023-12-27 19:44:00+00:00,280.0,5.33,290.0,6.08,13.21,47.59359,-54.27349
2023-12-27 19:54:00+00:00,267.0,5.02,265.0,5.59,13.21,47.59359,-54.27349
2023-12-27 20:04:00+00:00,268.0,5.47,270.0,6.19,13.21,47.59359,-54.27349
2023-12-27 20:14:00+00:00,265.0,4.89,277.0,5.61,12.57,47.59359,-54.27349
2023-12-27 20:24:00+00:00,265.0,5.84,271.0,6.91,12.57,47.59359,-54.27349
2023-12-27 20:34:00+00:00,267.0,5.1,266.0,5.88,12.57,47.59359,-54.27349
2023-12-27 20:44:00+00:00,255.0,5.72,249.0,6.62,12.57,47.59359,-54.27349
2023-12-27 20:54:00+00:00,247.0,4.82,256.0,5.59,12.57,47.59359,-54.27349
2023-12-27 21:04:00+00:00,263.0,5.68,266.0,6.58,12.57,47.59359,-54.27349
2023-12-27 21:14:00+00:00,266.0,4.8,259.0,5.2,12.41,47.59359,-54.27349
2023-12-27 21:24:00+00:00,256.0,5.64,274.0,7.24,12.41,47.59359,-54.27349
2023-12-27 21:34:00+00:00,268.0,6.3,265.0,7.52,12.41,47.59359,-54.27349
2023-12-27 21:44:00+00:00,267.0,6.66,269.0,8.32,12.41,47.59359,-54.27349
2023-12-27 21:54:00+00:00,262.0,5.28,263.0,5.88,12.41,47.59359,-54.27349
2023-12-27 22:04:00+00:00,269.0,4.11,275.0,4.55,12.41,47.59359,-54.27349
2023-12-27 22:14:00+00:00,271.0,3.95,267.0,4.34,12.41,47.59359,-54.27349
2023-12-27 22:24:00+00:00,269.0,4.62,264.0,5.43,12.41,47.59359,-54.27349
2023-12-27 22:34:00+00:00,282.0,3.8,288.0,4.52,12.41,47.59359,-54.27349
2023-12-27 22:44:00+00:00,284.0,3.76,287.0,4.3,12.41,47.59359,-54.27349
2023-12-27 22:54:00+00:00,294.0,3.61,291.0,4.15,12.41,47.59359,-54.27349
2023-12-27 23:04:00+00:00,299.0,5.48,300.0,6.94,12.41,47.59359,-54.27349
2023-12-27 23:14:00+00:00,288.0,4.33,285.0,4.76,12.41,47.59359,-54.27349
2023-12-27 23:24:00+00:00,291.0,4.86,301.0,5.97,12.41,47.59359,-54.27349
2023-12-27 23:34:00+00:00,287.0,5.73,285.0,6.62,12.41,47.59359,-54.27349
2023-12-27 23:44:00+00:00,273.0,8.24,274.0,10.15,12.41,47.59359,-54.27349
2023-12-27 23:54:00+00:00,285.0,7.95,282.0,8.89,12.41,47.59359,-54.27349
